カタログに戻る

SL-14 DEB

運用中PO
NORAD 19295·DEBRIS·🇷🇺 Russia

打ち上げ Oct 26, 1978 から Plesetsk Cosmodrome

Loading…

次のパス (今後24時間)

TLE

最新Source: Space-Track

元期: Sep 14, 2026, 14:45 UTC

1 19295U 78100AE  26257.61479244 -.00000295  00000-0 -23846-2 0  9994
2 19295  81.9847 308.9034 0504360  72.6253  75.1685 12.07079746683940

AllMySatでSL-14 DEBをリアルタイム追跡

Download on the App Store